Location: Mauries
(43.6188°N, 0.3322°W)
Time: 19:04:56
(UTC+00:00)

Cosmos 2184 Rocket - Pass Details

Date: 14 January 2026
Orbit: 958 x 1001 km, 82.9° (Epoch: 10 February)

Event Time Altitude Azimuth Distance (km) Brightness Sun altitude
Rises 06:34:56 0° 212° (SSW) 3,658 6.9 -10.3°
Reaches altitude 10° 06:37:39 10° 220° (SW) 2,708 6.1 -9.8°
Maximum altitude 06:43:18 36° 286° (WNW) 1,482 4.5 -8.8°
Drops below altitude 10° 06:48:57 10° 352° (N) 2,704 6.0 -7.9°
Sets 06:51:41 0° 1° (N) 3,652 6.8 -7.4°
